Location: Bednik
(45.3500°N, 16.3833°E)
Time: 06:30:23
(UTC+00:00)

ATLAS 5 CENTAUR R/B - Pass Details

Date: 08 August 2020
Orbit: 533 x 1125 km, 63.4° (Epoch: 19 September)

Event Time Altitude Azimuth Distance (km) Brightness Sun altitude
Rises 19:01:22 0° 321° (NW) 3,276 6.9 -8.5°
Reaches altitude 10° 19:03:37 10° 322° (NW) 2,429 6.0 -8.8°
Maximum altitude 19:09:21 89° 236° (SW) 932 2.4 -9.6°
Enters shadow 19:15:43 11° 144° (SE) 2,709 4.2 -10.6°
